Rygge, Norway

2:05 AM CEST on July 23, 2017 (GMT +0200)
Rygge Air Base

Weather History for ENRY - December, 2012

Change the Weather History Date:

Monday, December 17, 2012

  Actual Average Record
Temperature  
Mean Temperature 34 °F -  
Max Temperature 35 °F 32 °F 44 °F (1998)
Min Temperature 32 °F 24 °F 3 °F (2010)
Degree Days  
Heating Degree Days 32    
Moisture  
Dew Point 33 °F    
Average Humidity 93    
Maximum Humidity 100    
Minimum Humidity 87    
Precipitation  
Precipitation 0.00 in - - ()
Sea Level Pressure  
Sea Level Pressure 29.87 in    
Wind  
Wind Speed 9 mph ()    
Max Wind Speed 13 mph    
Max Gust Speed -    
Visibility 6.1 miles    
Events Rain , Snow    
Averages and records for this station are not official NWS values.
T = Trace of Precipitation, MM = Missing Value Source: Averaged Metar Reports

Daily Weather History Graph

Daily Weather History Graph

Search for Another Location

Airport or City:

Trip Planner

Search our weather history database for the weather conditions in past years. The results will help you decide how hot, cold, wet, or windy it might be!

Date:

Astronomy

Dec. 17, 2012 Rise Set
Actual Time 9:10 AM CET 3:15 PM CET
Civil Twilight 8:14 AM CET 4:11 PM CET
Nautical Twilight 7:19 AM CET 5:06 PM CET
Astronomical Twilight 6:28 AM CET 5:57 PM CET
Moon 11:06 AM CET (12/17) 9:28 PM CET (12/17)
Length of Visible Light 7h 56m
Length of Day
6h 05m
Waxing Crescent, 22% of the Moon is Illuminated
Dec 17
Waxing Crescent
Dec 20
First Quarter
Dec 28
Full
Jan 5
Last Quarter
Jan 11
New

Hourly Weather History & Observations

Time (CET) Temp. Windchill Dew Point Humidity Pressure Visibility Wind Dir Wind Speed Gust Speed Precip Events Conditions
12:20 AM 35.6 °F 27.1 °F 33.8 °F 93% 29.77 in 5.6 mi East 12.7 mph - N/A   Overcast
12:50 AM 35.6 °F 27.5 °F 33.8 °F 93% 29.77 in 5.6 mi East 11.5 mph - N/A   Overcast
1:00 AM 35 °F - 34 °F 94% 29.79 in 6 mi East 11.2 mph - -   Clear
1:20 AM 35.6 °F 27.5 °F 33.8 °F 93% 29.77 in 5.6 mi East 11.5 mph - N/A   Overcast
1:50 AM 35.6 °F 27.5 °F 33.8 °F 93% 29.77 in 5.6 mi East 11.5 mph - N/A   Overcast
2:20 AM 35.6 °F 27.5 °F 33.8 °F 93% 29.77 in 6.2 mi East 11.5 mph - N/A   Overcast
2:50 AM 35.6 °F 28.0 °F 33.8 °F 93% 29.77 in 6.2 mi East 10.4 mph - N/A   Light Drizzle
3:20 AM 35.6 °F 28.0 °F 33.8 °F 93% 29.77 in 3.1 mi East 10.4 mph - N/A   Drizzle
3:50 AM 35.6 °F 27.5 °F 33.8 °F 93% 29.80 in 3.7 mi East 11.5 mph - N/A   Light Drizzle
4:20 AM 35.6 °F 28.0 °F 33.8 °F 93% 29.80 in 5.6 mi East 10.4 mph - N/A   Light Drizzle
4:50 AM 35.6 °F 28.0 °F 33.8 °F 93% 29.80 in 6.2 mi East 10.4 mph - N/A   Overcast
5:20 AM 35.6 °F 28.6 °F 33.8 °F 93% 29.80 in 5.6 mi East 9.2 mph - N/A   Light Drizzle
5:50 AM 35.6 °F 27.1 °F 33.8 °F 93% 29.80 in 5.6 mi East 12.7 mph - N/A   Overcast
6:20 AM 35.6 °F 27.5 °F 33.8 °F 93% 29.80 in 6.2 mi East 11.5 mph - N/A   Mostly Cloudy
6:50 AM 35.6 °F 27.1 °F 33.8 °F 93% 29.80 in 6.2 mi East 12.7 mph - N/A   Mostly Cloudy
7:00 AM 35 °F - 33 °F 92% 29.83 in 6 mi East 11.2 mph - - Rain Light Drizzle
7:20 AM 35.6 °F 27.5 °F 33.8 °F 93% 29.80 in 6.2 mi East 11.5 mph - N/A   Mostly Cloudy
7:50 AM 35.6 °F 28.0 °F 33.8 °F 93% 29.83 in 6.2 mi East 10.4 mph - N/A   Mostly Cloudy
8:20 AM 35.6 °F 28.6 °F 33.8 °F 93% 29.83 in 6.2 mi ENE 9.2 mph - N/A   Mostly Cloudy
8:50 AM 35.6 °F 28.6 °F 33.8 °F 93% 29.83 in 6.2 mi East 9.2 mph - N/A   Mostly Cloudy
9:20 AM 35.6 °F 29.9 °F 33.8 °F 93% 29.86 in 6.2 mi ENE 6.9 mph - N/A   Mostly Cloudy
9:50 AM 35.6 °F 29.9 °F 33.8 °F 93% 29.86 in 6.2 mi ENE 6.9 mph - N/A   Mostly Cloudy
10:20 AM 33.8 °F 25.8 °F 33.8 °F 100% 29.86 in 6.2 mi ENE 10.4 mph - N/A   Mostly Cloudy
10:50 AM 33.8 °F 25.3 °F 32.0 °F 93% 29.86 in 5.0 mi ENE 11.5 mph - N/A   Mostly Cloudy
11:20 AM 33.8 °F 25.8 °F 32.0 °F 93% 29.86 in 6.2 mi ENE 10.4 mph - N/A   Mostly Cloudy
11:50 AM 33.8 °F 26.4 °F 32.0 °F 93% 29.86 in 6.2 mi ENE 9.2 mph - N/A   Mostly Cloudy
12:20 PM 33.8 °F 27.7 °F 32.0 °F 93% 29.89 in 6.2 mi NE 6.9 mph - N/A   Mostly Cloudy
12:50 PM 33.8 °F 27.0 °F 32.0 °F 93% 29.89 in 6.2 mi NE 8.1 mph - N/A   Mostly Cloudy
1:00 PM 34 °F - 33 °F 93% 29.91 in 9 mi NE 6.7 mph - -   Partly Cloudy
1:20 PM 33.8 °F 27.7 °F 32.0 °F 93% 29.89 in 6.2 mi NE 6.9 mph - N/A   Mostly Cloudy
1:50 PM 33.8 °F 27.0 °F 32.0 °F 93% 29.89 in 6.2 mi NE 8.1 mph - N/A   Mostly Cloudy
2:20 PM 33.8 °F 26.4 °F 32.0 °F 93% 29.89 in 6.2 mi NE 9.2 mph - N/A   Mostly Cloudy
2:50 PM 33.8 °F 27.0 °F 32.0 °F 93% 29.89 in 6.2 mi NE 8.1 mph - N/A   Mostly Cloudy
3:20 PM 33.8 °F 27.0 °F 32.0 °F 93% 29.89 in 6.2 mi NE 8.1 mph - N/A   Mostly Cloudy
3:50 PM 33.8 °F 27.7 °F 32.0 °F 93% 29.92 in 6.2 mi NNE 6.9 mph - N/A   Mostly Cloudy
4:20 PM 33.8 °F 27.0 °F 32.0 °F 93% 29.92 in 6.2 mi NE 8.1 mph - N/A Snow Light Snow
4:50 PM 33.8 °F 27.7 °F 32.0 °F 93% 29.92 in 6.2 mi NNE 6.9 mph - N/A Snow Light Snow
5:20 PM 33.8 °F 27.0 °F 32.0 °F 93% 29.92 in 6.2 mi NNE 8.1 mph - N/A Snow Light Snow
5:50 PM 33.8 °F 26.4 °F 32.0 °F 93% 29.92 in 6.2 mi NE 9.2 mph - N/A   Mostly Cloudy
6:20 PM 33.8 °F 26.4 °F 30.2 °F 87% 29.95 in 6.2 mi NE 9.2 mph - N/A   Mostly Cloudy
6:50 PM 33.8 °F 26.4 °F 30.2 °F 87% 29.95 in 6.2 mi NNE 9.2 mph - N/A Snow Light Snow
7:00 PM 33 °F - 31 °F 87% 29.96 in 10 mi NNE 8.9 mph - - Snow Light Snow
7:20 PM 33.8 °F 26.4 °F 30.2 °F 87% 29.95 in 6.2 mi NNE 9.2 mph - N/A   Mostly Cloudy
8:20 PM 33.8 °F 26.4 °F 30.2 °F 87% 29.95 in 6.2 mi North 9.2 mph - N/A   Mostly Cloudy
8:50 PM 32.0 °F 24.8 °F 30.2 °F 93% 29.95 in 6.2 mi North 8.1 mph - N/A   Mostly Cloudy
9:20 PM 32.0 °F 24.8 °F 30.2 °F 93% 29.98 in 6.2 mi NNE 8.1 mph - N/A   Mostly Cloudy
9:50 PM 32.0 °F 23.6 °F 30.2 °F 93% 29.98 in 6.2 mi NNE 10.4 mph - N/A   Mostly Cloudy
10:20 PM 32.0 °F 24.2 °F 30.2 °F 93% 29.98 in 6.2 mi NNE 9.2 mph - N/A   Mostly Cloudy
10:50 PM 32.0 °F 24.2 °F 30.2 °F 93% 29.98 in 6.2 mi NNE 9.2 mph - N/A   Mostly Cloudy